KB0ZXY Weather Reports


Display with metric or nautical units.
time (UTC)temp
F
wind
direction
speed
MPH
gust
MPH
rain 1hr
in
rain 24hr
in
rain mn
in
humidity
%
barometer
mb
20171215165402 40 269 5.0 9.0 0.00 0.00 0.00 59 1019.6
20171215163437 40 240 4.0 6.0 0.00 0.00 0.00 63 1019.7
20171215155430 38 239 4.0 6.0 0.00 0.00 0.00 79 1019.6
20171215154339 37 246 3.0 6.0 0.00 0.00 0.00 81 1019.6
20171215151337 35 270 3.0 6.0 0.00 0.00 0.00 87 1019.4
20171215143358 31 254 2.0 3.0 0.00 0.00 0.00 93 1019.1
20171215142406 30 254 2.0 3.0 0.00 0.00 0.00 93 1019.0
20171215132455 30 254 2.0 2.0 0.00 0.00 0.00 88 1019.0
20171215125351 32 254 1.0 2.0 0.00 0.00 0.00 86 1019.0
20171215124536 33 254 0.0 2.0 0.00 0.00 0.00 84 1019.0
20171215113403 34 254 3.0 5.0 0.00 0.00 0.00 82 1018.5
20171215112515 34 254 3.0 5.0 0.00 0.00 0.00 82 1018.5
20171215104529 33 233 2.0 4.0 0.00 0.00 0.00 82 1018.4
20171215090450 30 138 1.0 3.0 0.00 0.00 0.00 85 1018.4
20171215085459 29 136 2.0 3.0 0.00 0.00 0.00 87 1018.3
20171215084404 28 136 2.0 3.0 0.00 0.00 0.00 90 1018.3
20171215081425 26 61 0.0 0.0 0.00 0.00 0.00 93 1018.3
20171215074358 24 61 0.0 0.0 0.00 0.00 0.00 90 1018.1
20171215064357 26 61 0.0 0.0 0.00 0.00 0.00 86 1018.2
20171215050423 30 61 0.0 0.0 0.00 0.00 0.00 85 1018.5
20171215033420 31 51 0.0 0.0 0.00 0.00 0.00 79 1018.3
20171215031433 31 51 0.0 0.0 0.00 0.00 0.00 78 1018.3
20171215012411 34 51 2.0 2.0 0.00 0.00 0.00 73 1018.0
20171215005527 34 51 2.0 2.0 0.00 0.00 0.00 72 1018.0
20171215000406 35 51 0.0 0.0 0.00 0.00 0.00 71 1017.7
20171214235333 35 51 0.0 0.0 0.00 0.00 0.00 70 1017.6
20171214220342 37 44 3.0 5.0 0.00 0.00 0.00 63 1017.1
20171214211508 38 254 2.0 4.0 0.00 0.00 0.00 60 1017.1
20171214210437 38 250 4.0 6.0 0.00 0.00 0.00 60 1017.0
20171214192426 38 309 1.0 4.0 0.00 0.00 0.00 60 1017.0
20171214182433 38 355 2.0 4.0 0.00 0.00 0.00 61 1017.2